Anaktuvuk Pass, AK

10:36 PM AKDT on April 22, 2018 (GMT -0800)
Anaktuvuk Pass

Weather History for PAKP - June, 2013

Change the Weather History Date:

Monday, June 3, 2013

  Actual Average Record
Temperature  
Mean Temperature 44 °F -  
Max Temperature 55 °F 51 °F 64 °F (2007)
Min Temperature 32 °F 33 °F 19 °F (2006)
Degree Days  
Heating Degree Days 22    
Moisture  
Dew Point 31 °F    
Average Humidity 63    
Maximum Humidity 81    
Minimum Humidity 44    
Precipitation  
Precipitation 0.03 in - - ()
Sea Level Pressure  
Sea Level Pressure 29.76 in    
Wind  
Wind Speed 7 mph (NE)    
Max Wind Speed 21 mph    
Max Gust Speed 28 mph    
Visibility 9 miles    
Events      
Averages and records for this station are not official NWS values.
T = Trace of Precipitation, MM = Missing Value Source: NWS Daily Summary

Daily Weather History Graph

Daily Weather History Graph

Search for Another Location

Airport or City:

Astronomy

Jun. 03, 2013 Rise Set
Actual Time 2:37 AM AKDT 1:32 AM AKDT
Civil Twilight Sun does not set Sun does not set
Nautical Twilight Sun does not set Sun does not set
Astronomical Twilight Sun does not set Sun does not set
Moon 2:43 AM AKDT (6/3) 6:33 PM AKDT (6/3)
Length of Visible Light 24h 00m
Length of Day
22h 55m
Waning Crescent, 20% of the Moon is Illuminated
Jun 3
Waning Crescent
Jun 8
New
Jun 16
First Quarter
Jun 23
Full
Jun 29
Last Quarter

Hourly Weather History & Observations

Time (AKDT) Temp. Windchill Dew Point Humidity Pressure Visibility Wind Dir Wind Speed Gust Speed Precip Events Conditions
12:16 AM 46.4 °F - 28.4 °F 50% 29.85 in 3.0 mi Calm Calm - N/A   Clear
12:36 AM 42.8 °F - 28.4 °F 57% 29.85 in 10.0 mi Calm Calm - N/A   Clear
12:56 AM 42.8 °F - 28.4 °F 57% 29.85 in 9.0 mi Calm Calm - N/A   Clear
1:16 AM 42.8 °F - 28.4 °F 57% 29.85 in 4.0 mi Calm Calm - N/A   Clear
1:36 AM 39.2 °F - 28.4 °F 65% 29.85 in 5.0 mi Calm Calm - N/A   Clear
1:56 AM 39.2 °F - 28.4 °F 65% 29.85 in 4.0 mi Calm Calm - N/A   Clear
2:16 AM 37.4 °F - 26.6 °F 65% 29.85 in 10.0 mi Calm Calm - N/A   Clear
2:36 AM 37.4 °F - 26.6 °F 65% 29.84 in 4.0 mi Calm Calm - N/A   Clear
2:56 AM 37.4 °F - 28.4 °F 70% 29.84 in 9.0 mi Calm Calm - N/A   Clear
3:16 AM 37.4 °F - 28.4 °F 70% 29.84 in 10.0 mi Calm Calm - N/A   Clear
3:36 AM 35.6 °F - 26.6 °F 70% 29.83 in 10.0 mi Calm Calm - N/A   Clear
3:56 AM 37.4 °F - 28.4 °F 70% 29.83 in 10.0 mi Calm Calm - N/A   Clear
4:16 AM 37.4 °F - 28.4 °F 70% 29.83 in 10.0 mi Calm Calm - N/A   Clear
4:36 AM 37.4 °F - 28.4 °F 70% 29.82 in 9.0 mi Calm Calm - N/A   Clear
4:56 AM 39.2 °F 37.0 °F 28.4 °F 65% 29.82 in 10.0 mi NNW 3.5 mph - N/A   Clear
5:16 AM 39.2 °F 33.6 °F 28.4 °F 65% 29.82 in 10.0 mi NNE 8.1 mph - N/A   Clear
5:36 AM 39.2 °F 35.0 °F 28.4 °F 65% 29.82 in 8.0 mi North 5.8 mph - N/A   Clear
5:56 AM 42.8 °F 39.3 °F 28.4 °F 57% 29.82 in 10.0 mi North 5.8 mph - N/A   Clear
6:16 AM 42.8 °F 38.6 °F 28.4 °F 57% 29.82 in 10.0 mi North 6.9 mph - N/A   Clear
6:36 AM 44.6 °F 41.4 °F 30.2 °F 57% 29.81 in 10.0 mi NNW 5.8 mph - N/A   Clear
6:56 AM 44.6 °F 40.7 °F 30.2 °F 57% 29.81 in 7.0 mi North 6.9 mph - N/A   Clear
7:16 AM 44.6 °F 41.4 °F 30.2 °F 57% 29.81 in 10.0 mi North 5.8 mph - N/A   Clear
7:36 AM 46.4 °F 42.4 °F 30.2 °F 53% 29.80 in 10.0 mi NNE 8.1 mph - N/A   Clear
7:56 AM 48.2 °F - 30.2 °F 50% 29.80 in 10.0 mi NNE 8.1 mph - N/A   Clear
8:16 AM 48.2 °F - 30.2 °F 50% 29.80 in 10.0 mi NNE 6.9 mph - N/A   Clear
8:36 AM 48.2 °F - 30.2 °F 50% 29.79 in 10.0 mi NNE 9.2 mph - N/A   Clear
8:56 AM 48.2 °F - 30.2 °F 50% 29.79 in 10.0 mi NNE 9.2 mph - N/A   Clear
9:16 AM 48.2 °F - 32.0 °F 54% 29.78 in 10.0 mi NNE 9.2 mph - N/A   Clear
9:36 AM 50.0 °F - 32.0 °F 50% 29.78 in 4.0 mi NNE 9.2 mph - N/A   Clear
9:56 AM 50.0 °F - 32.0 °F 50% 29.77 in 10.0 mi NNE 9.2 mph - N/A   Clear
10:16 AM 50.0 °F - 32.0 °F 50% 29.77 in 10.0 mi NNE 10.4 mph - N/A   Clear
10:36 AM 51.8 °F - 32.0 °F 47% 29.76 in 10.0 mi NE 10.4 mph - N/A   Clear
10:56 AM 51.8 °F - 33.8 °F 50% 29.76 in 10.0 mi NNE 10.4 mph - N/A   Clear
11:16 AM 51.8 °F - 33.8 °F 50% 29.75 in 10.0 mi NE 10.4 mph - N/A   Clear
11:36 AM 53.6 °F - 33.8 °F 47% 29.74 in 10.0 mi NE 12.7 mph - N/A   Clear
11:56 AM 53.6 °F - 33.8 °F 47% 29.74 in 8.0 mi NE 11.5 mph - N/A   Clear
12:16 PM 53.6 °F - 33.8 °F 47% 29.73 in 10.0 mi NE 12.7 mph - N/A   Clear
12:36 PM 53.6 °F - 33.8 °F 47% 29.73 in 10.0 mi NE 11.5 mph - N/A   Clear
12:56 PM 55.4 °F - 33.8 °F 44% 29.72 in 10.0 mi NE 17.3 mph 20.7 mph N/A   Clear
1:16 PM 53.6 °F - 35.6 °F 51% 29.72 in 10.0 mi NNE 16.1 mph - N/A   Clear
1:36 PM 53.6 °F - 35.6 °F 51% 29.71 in 10.0 mi NNE 16.1 mph 20.7 mph N/A   Clear
1:56 PM 53.6 °F - 35.6 °F 51% 29.71 in 10.0 mi NE 17.3 mph 20.7 mph N/A   Clear
2:16 PM 51.8 °F - 35.6 °F 54% 29.71 in 10.0 mi NE 16.1 mph 21.9 mph N/A   Clear
2:36 PM 51.8 °F - 35.6 °F 54% 29.72 in 10.0 mi NE 12.7 mph 20.7 mph N/A   Scattered Clouds
2:56 PM 50.0 °F - 35.6 °F 58% 29.71 in 10.0 mi NE 16.1 mph - N/A   Overcast
3:16 PM 48.2 °F - 35.6 °F 62% 29.71 in 10.0 mi NE 12.7 mph 19.6 mph N/A   Overcast
3:36 PM 48.2 °F - 33.8 °F 58% 29.70 in 10.0 mi NE 16.1 mph 21.9 mph N/A   Overcast
3:56 PM 48.2 °F - 35.6 °F 62% 29.69 in 10.0 mi NE 20.7 mph 25.3 mph N/A   Mostly Cloudy
4:16 PM 48.2 °F - 35.6 °F 62% 29.70 in 10.0 mi NE 20.7 mph 25.3 mph N/A   Mostly Cloudy
4:36 PM 46.4 °F 39.0 °F 35.6 °F 66% 29.71 in 10.0 mi NE 19.6 mph 25.3 mph N/A   Overcast
4:56 PM 46.4 °F 38.7 °F 33.8 °F 62% 29.70 in 10.0 mi NE 20.7 mph 27.6 mph N/A   Overcast
5:16 PM 44.6 °F 36.9 °F 33.8 °F 66% 29.71 in 10.0 mi NE 18.4 mph 25.3 mph N/A   Mostly Cloudy
5:36 PM 44.6 °F 36.6 °F 33.8 °F 66% 29.71 in 10.0 mi NE 19.6 mph 25.3 mph N/A   Mostly Cloudy
5:56 PM 42.8 °F 34.3 °F 33.8 °F 70% 29.71 in 10.0 mi NE 19.6 mph 26.5 mph N/A   Overcast
6:16 PM 42.8 °F 34.5 °F 33.8 °F 70% 29.71 in 10.0 mi NE 18.4 mph 24.2 mph N/A   Overcast
6:36 PM 42.8 °F 34.5 °F 33.8 °F 70% 29.71 in 10.0 mi NE 18.4 mph 25.3 mph N/A   Overcast
6:56 PM 41.0 °F 32.5 °F 32.0 °F 70% 29.72 in 10.0 mi NE 17.3 mph 23.0 mph N/A   Overcast
7:16 PM 39.2 °F 30.8 °F 30.2 °F 70% 29.72 in 10.0 mi NE 15.0 mph 21.9 mph N/A   Overcast
7:36 PM 37.4 °F 28.9 °F 30.2 °F 75% 29.72 in 10.0 mi ENE 13.8 mph - N/A   Overcast
7:56 PM 37.4 °F 28.9 °F 30.2 °F 75% 29.72 in 9.0 mi NE 13.8 mph 19.6 mph N/A   Overcast
8:16 PM 35.6 °F 26.2 °F 30.2 °F 81% 29.72 in 7.0 mi NE 15.0 mph - N/A   Overcast
8:36 PM 35.6 °F 26.6 °F 30.2 °F 81% 29.72 in 5.0 mi NE 13.8 mph 19.6 mph N/A   Overcast
8:56 PM 35.6 °F 25.9 °F 30.2 °F 81% 29.72 in 4.0 mi NE 16.1 mph 21.9 mph 0.01 in   Overcast
9:16 PM 33.8 °F 23.5 °F 28.4 °F 81% 29.72 in 6.0 mi NE 16.1 mph 21.9 mph 0.01 in   Overcast
9:36 PM 33.8 °F 24.3 °F 28.4 °F 81% 29.71 in 9.0 mi NE 13.8 mph 24.2 mph 0.02 in   Overcast
9:56 PM 33.8 °F 23.5 °F 28.4 °F 81% 29.71 in 10.0 mi ENE 16.1 mph 21.9 mph 0.02 in   Overcast
10:16 PM 33.8 °F 24.3 °F 28.4 °F 81% 29.71 in 5.0 mi ENE 13.8 mph 17.3 mph N/A   Overcast
10:36 PM 33.8 °F 23.2 °F 28.4 °F 81% 29.71 in 5.0 mi NE 17.3 mph 25.3 mph N/A   Overcast
10:56 PM 32.0 °F 20.8 °F 26.6 °F 80% 29.71 in 8.0 mi NE 17.3 mph 26.5 mph N/A   Overcast
11:16 PM 32.0 °F 22.1 °F 26.6 °F 80% 29.71 in 10.0 mi NE 13.8 mph 23.0 mph N/A   Overcast
11:36 PM 32.0 °F 22.1 °F 26.6 °F 80% 29.71 in 10.0 mi NE 13.8 mph 20.7 mph N/A   Overcast
11:56 PM 32.0 °F 21.2 °F 26.6 °F 80% 29.70 in 10.0 mi NE 16.1 mph 24.2 mph N/A   Overcast